Regional Weather Roundup
Issued by NWS

Home | Current Version | Previous Version | Graphics & Text | Print | Product List | Glossary On
Versions: 1 2 3 4 5 6 7 8 9 10 11 12 13 14 15 16 17 18 19 20 21 22 23 24 25 26 27 28 29 30 31 32 33 34 35 36 37 38 39 40 41 42 43 44 45 46 47 48 49 50
000
ASUS43 KLOT 240303
RWRIL

ILLINOIS REGIONAL WEATHER ROUNDUP
NATIONAL WEATHER SERVICE CHICAGO/ROMEOVILLE IL
1000 PM CDT WED MAY 23 2018

NOTE: "FAIR" INDICATES FEW OR NO CLOUDS BELOW 12,000 FEET WITH NO
SIGNIFICANT WEATHER AND/OR OBSTRUCTIONS TO VISIBILITY.

* THESE STATIONS ARE NOT UNDER NWS QUALITY CONTROL. THEY ALSO MAY NOT
  REPORT WEATHER SUCH AS PRECIPITATION OR FOG.

ILZ001-002-007-009-015-016-024-240400-
NORTHWEST ILLINOIS

CITY           SKY/WX    TMP DP  RH WIND       PRES   REMARKS
MOLINE         FAIR      71  60  68 E7        30.13R
STERLING*      FAIR      66  63  90 CALM      30.16R
$$

ILZ003-004-008-010-011-017-018-240400-
NORTH CENTRAL ILLINOIS

CITY           SKY/WX    TMP DP  RH WIND       PRES   REMARKS
ROCKFORD       FAIR      68  58  70 CALM      30.18R
FREEPORT*      FAIR      66  61  84 SE3       30.19R
ROCHELLE*      FAIR      67  62  83 SE5       30.17S
DE KALB*       FAIR      67  53  59 E7        30.19R
$$

ILZ005-006-012>014-019>023-240400-
NORTHEAST ILLINOIS

CITY           SKY/WX    TMP DP  RH WIND       PRES   REMARKS
CHICAGO-OHARE  FAIR      64  50  60 E5        30.18R
CHICAGO-MIDWAY FAIR      63  53  70 E7        30.19R
AURORA         FAIR      68  55  63 E3        30.18R
LANSING*       FAIR      60  55  83 CALM      30.19R
JOLIET*        FAIR      67  47  49 NE5       30.18R
WAUKEGAN       FAIR      55  53  93 CALM      30.18R
DUPAGE AIRPORT FAIR      67  48  50 E6        30.18R
KANKAKEE*      FAIR      65  54  68 NE7       30.18R
WHEELING       FAIR      62  53  72 CALM      30.20R
MORRIS*        FAIR      69  52  53 E7        30.16S
NORTHERLY ISL    N/A     55  52  89 N3          N/A
$$

LMZ740>746-240400-
SOUTHERN LAKE MICHIGAN

STATION/POSITION SKY/WX   TEMP    WIND        PRES    VSBY  WAVE
                          AIR SEA DIR/SP/G                  HT/PER
                          (F)     (DEG/KT/KT) (MB)    (MI)  (FT/S)
SOUTHERN BUOY              48 39  110/  6/  6 1022.8R         0
WILMETTE HARBOR            54 53  130/  4/  4   N/A           0
HARRISON CRIB              55     150/  3/  3   N/A
BURNHAM HARBOR             55      50/  1/  3   N/A
CALUMET HARBOR             56      40/  3/  5 1021.7R
BURNS HARBOR               58      70/  5/  6 1022.7R
MICHIGAN CITY              60      40/ 10/ 10   N/A
MICHIGAN CITY 6N           57 57   70/  4/  6   N/A           0
ST. JOSEPH                 57 55   50/  4/  4 1022.7R         1
$$

ILZ025>027-034>036-040-047-049-050-058-095>099-240400-
WEST-CENTRAL ILLINOIS

CITY           SKY/WX    TMP DP  RH WIND       PRES   REMARKS
QUINCY         CLEAR     76  64  66 SE5       30.12R
GALESBURG*     FAIR      68  60  74 CALM      30.15S
MACOMB*        CLEAR     71  63  76 E3        30.15R
JACKSONVILLE*  CLEAR     72  64  75 E3        30.13R
PITTSFIELD*    CLEAR     74  66  76 CALM      30.13S
$$

ILZ028>032-037-038-041>044-048-051>054-059>061-240400-
CENTRAL ILLINOIS

CITY           SKY/WX    TMP DP  RH WIND       PRES   REMARKS
BLOOMINGTON    FAIR      72  51  47 SE8       30.17R
DECATUR        FAIR      70  51  51 SE8       30.15R
PEORIA         FAIR      72  59  63 NE5       30.14R
LACON*         FAIR      71  60  68 E7        30.14R
LINCOLN*       FAIR      74  53  48 SE3       30.14R
SPRINGFIELD    FAIR      72  60  66 SE6       30.14R
TAYLORVILLE    NOT AVBL
$$

ILZ033-039-045-046-055>057-062-063-240400-
EAST-CENTRAL ILLINOIS

CITY           SKY/WX    TMP DP  RH WIND       PRES   REMARKS
CHAMPAIGN      FAIR      70  54  56 E6        30.16R
DANVILLE*      FAIR      71  55  56 CALM      30.15R
RANTOUL*       FAIR      73  58  60 CALM      30.16R
MATTOON        FAIR      70  61  73 CALM      30.15R
$$

ILZ079-100>102-240400-
SOUTHWEST ILLINOIS

CITY           SKY/WX    TMP DP  RH WIND       PRES   REMARKS
ALTON          PTCLDY    70  63  78 NE6       30.12S
BELLEVILLE     PTCLDY    71  63  76 CALM      30.10S
CAHOKIA*       CLEAR     74  66  76 CALM      30.11R
SPARTA*        PTCLDY    72  68  87 CALM      30.13S
$$

ILZ064>066-069>071-074>076-080>082-084>086-088>090-092>094-240400-
SOUTH-CENTRAL ILLINOIS

CITY           SKY/WX    TMP DP  RH WIND       PRES   REMARKS
CARBONDALE     FAIR      69  64  84 CALM      30.10S
CAIRO*         FAIR      74  69  85 CALM      30.10R
EFFINGHAM*     FAIR      68  60  75 CALM      30.16R
MT. VERNON     FAIR      63  63 100 CALM      30.13R
CENTRALIA*     CLEAR     70  66  87 CALM      30.12S
SALEM*         FAIR      71  62  71 CALM      30.13S
METROPOLIS*    FAIR      73  69  87 CALM      30.11R
$$

ILZ067-068-072-073-078-083-087-091-240400-
SOUTHEAST ILLINOIS

CITY           SKY/WX    TMP DP  RH WIND       PRES   REMARKS
LAWRENCEVILLE  FAIR      74  60  61 E3        30.14R
FLORA*         FAIR      72  62  72 CALM      30.13R
FAIRFIELD*     FAIR      70  61  74 CALM      30.12R
HARRISBURG*    FAIR      71  67  87 CALM      30.11R
ROBINSON*      FAIR      70  60  69 CALM      30.15R
CARMI*         FAIR      72  64  77 NE3       30.11R
$$

ABBREVIATIONS USED IN REMARKS
   TC - TEMPERATURE IN CELSIUS
  WCI - WIND CHILL INDEX
   HX - HEAT INDEX
  VSB - VISIBILITY
$$





USA.gov is the U.S. government's official web portal to all federal, state and local government web resources and services.